Location: Palomar Mountain Lodge
(33.3110°N, 116.8495°W)
Time: 01:51:30
(UTC-07:00)

Cosmos 1758 Rocket - Pass Details

Date: 14 June 2018
Orbit: 603 x 635 km, 82.5° (Epoch: 19 August)

Event Time Altitude Azimuth Distance (km) Brightness Sun altitude
Exits shadow 22:05:34 60° 137° (SE) 723 3.5 -21.5°
Maximum altitude 22:06:06 67° 94° (E) 685 3.5 -21.5°
Drops below altitude 10° 22:10:32 10° 12° (NNE) 2,010 6.7 -22.1°
Sets 22:12:46 0° 10° (N) 2,916 7.6 -22.4°
